Location: Stöllet
(60.4110°N, 13.2704°E)
Time: 06:26:51
(UTC+02:00)

ISS - Visible Passes

Search period start: 21 October 2020 00:00
Search period end: 30 October 2020 23:00
Orbit: 418 x 420 km, 51.6° (Epoch: 20 October)

Date Brightness Start Highest point End Pass type
(mag) Time Alt. Az. Time Alt. Az. Time Alt. Az.
25 Oct -0.6 05:57:25 10° SSE 05:58:03 10° SSE 05:58:41 10° SE visible
27 Oct -1.1 05:56:50 10° SSW 05:58:50 15° SSE 06:00:48 10° SE visible
28 Oct -1.0 05:09:45 10° S 05:11:19 13° SSE 05:12:51 10° SE visible
29 Oct -0.9 04:23:28 10° SSE 04:23:48 10° SSE 04:24:23 10° SE visible
29 Oct -1.4 05:57:17 10° SW 05:59:40 18° S 06:02:02 10° SE visible
30 Oct -1.4 05:10:42 13° SSW 05:12:06 17° SSE 05:14:20 10° SE visible
